User: anonymous
Location: Trois-Rivi�res
(46.3500°N, 72.5500°W)
Time: 20:23:47
(UTC-04:00)
Language:

Cosmos 1544 - Orbit

View from above orbital plane
View from above orbital plane
View from above satellite
View from above satellite

Ground track
Ground track

The orbit data is extracted from the following two-line orbital elements,

1 14819U 84027A   14212.69404715  .00004391  00000-0  21763-3 0  9821
2 14819 082.4909 359.4699 0018584 122.7717 006.3395 15.17341872655792
Epoch (UTC): 31 July 2014 16:39:25
Eccentricity: 0.0018584
inclination: 82.4909°
perigee height: 501 km
apogee height: 526 km
right ascension of ascending node: 359.4699°
argument of perigee: 122.7717°
revolutions per day: 15.17341872
mean anomaly at epoch: 6.3395°
orbit number at epoch: 65579

The dashed part of the orbit path shows where the satellite is in the earth's shadow,  

DLR